User: anonymous   Login
Location: Demmingen
(48.6757°N, 10.4375°E)
Time: 20:25:38
(UTC+00:00)
Language:

Nimbus 7 Rocket - Orbit

View from above orbital plane
View from above orbital plane
View from above satellite
View from above satellite

Ground track
Ground track

The orbit data is extracted from the following two-line orbital elements,

1 11081U 78098B   24199.36978172  .00000067  00000-0  97757-4 0  9993
2 11081  99.3758 121.5588 0028225 222.1515 137.7470 13.85911597150869
Epoch (UTC): 17 July 2024 08:52:29
Eccentricity: 0.0028225
inclination: 99.3758°
perigee height: 922 km
apogee height: 963 km
right ascension of ascending node: 121.5588°
argument of perigee: 222.1515°
revolutions per day: 13.85911597
mean anomaly at epoch: 137.7470°
orbit number at epoch: 15086

The dashed part of the orbit path shows where the satellite is in the earth's shadow,  

DLR